| time (UTC) | temp F | wind direction | speed MPH | gust MPH | rain 1hr in | rain 24hr in | rain mn in | humidity % | barometer mb |
| 20260505124530 | 39 | 38 | 1.0 | 3.0 | 0.01 | 0.52 | 0.34 | 91 | 1010.2 |
| 20260505123025 | 39 | 59 | 0.0 | 7.0 | 0.02 | 0.52 | 0.34 | 91 | 1010.2 |
| 20260505121528 | 40 | 115 | 1.0 | 11.0 | 0.08 | 0.52 | 0.34 | 91 | 1010.1 |
| 20260505120100 | 41 | 96 | 3.0 | 8.0 | 0.13 | 0.52 | 0.34 | 92 | 1010.3 |
| 20260505114527 | 41 | 121 | 2.0 | 6.0 | 0.18 | 0.52 | 0.33 | 91 | 1010.2 |
| 20260505113029 | 41 | 208 | 3.0 | 16.0 | 0.21 | 0.51 | 0.32 | 91 | 1010.4 |
| 20260505111535 | 42 | 40 | 1.0 | 8.0 | 0.17 | 0.44 | 0.25 | 91 | 1010.6 |
| 20260505094535 | 41 | 0 | 0.0 | 2.0 | 0.01 | 0.22 | 0.03 | 90 | 1010.3 |
| 20260505093031 | 41 | 0 | 0.0 | 2.0 | 0.01 | 0.21 | 0.02 | 90 | 1010.4 |
| 20260505091528 | 41 | 65 | 2.0 | 4.0 | 0.01 | 0.21 | 0.02 | 90 | 1010.4 |
| 20260505090030 | 41 | 0 | 0.0 | 3.0 | 0.01 | 0.21 | 0.02 | 89 | 1010.4 |
| 20260505084528 | 41 | 135 | 1.0 | 4.0 | 0.01 | 0.21 | 0.02 | 89 | 1010.6 |
| 20260505083028 | 41 | 284 | 1.0 | 4.0 | 0.00 | 0.20 | 0.01 | 89 | 1010.9 |
| 20260505081541 | 41 | 0 | 0.0 | 3.0 | 0.00 | 0.20 | 0.01 | 89 | 1010.9 |
| 20260505080028 | 41 | 329 | 0.0 | 2.0 | 0.00 | 0.20 | 0.01 | 88 | 1010.8 |
| 20260505074529 | 41 | 0 | 0.0 | 3.0 | 0.00 | 0.20 | 0.01 | 88 | 1011.0 |
| 20260505073041 | 41 | 320 | 1.0 | 2.0 | 0.01 | 0.20 | 0.01 | 88 | 1011.2 |
| 20260505071544 | 41 | 329 | 1.0 | 2.0 | 0.01 | 0.20 | 0.01 | 87 | 1011.4 |
| 20260505070029 | 41 | 0 | 0.0 | 3.0 | 0.01 | 0.20 | 0.01 | 87 | 1011.4 |
| 20260505064528 | 41 | 0 | 2.0 | 6.0 | 0.01 | 0.20 | 0.01 | 87 | 1011.5 |
| 20260505063029 | 41 | 142 | 1.0 | 4.0 | 0.00 | 0.19 | 0.00 | 87 | 1011.5 |
| 20260505061531 | 41 | 273 | 1.0 | 2.0 | 0.00 | 0.19 | 0.00 | 86 | 1011.4 |
| 20260505060028 | 41 | 0 | 1.0 | 4.0 | 0.00 | 0.19 | 0.00 | 85 | 1011.1 |
| 20260505054547 | 41 | 332 | 1.0 | 3.0 | 0.00 | 0.19 | 0.19 | 85 | 1011.1 |
| 20260505053038 | 41 | 360 | 2.0 | 3.0 | 0.00 | 0.19 | 0.19 | 84 | 1011.2 |
| 20260505051535 | 40 | 0 | 0.0 | 4.0 | 0.00 | 0.19 | 0.19 | 83 | 1011.4 |
| 20260505041528 | 42 | 326 | 2.0 | 3.0 | 0.00 | 0.19 | 0.19 | 77 | 1011.2 |
| 20260505040040 | 43 | 0 | 1.0 | 5.0 | 0.00 | 0.19 | 0.19 | 77 | 1011.2 |
| 20260505034529 | 44 | 322 | 0.0 | 3.0 | 0.00 | 0.19 | 0.19 | 77 | 1011.0 |
| 20260505033036 | 44 | 0 | 0.0 | 4.0 | 0.00 | 0.19 | 0.19 | 76 | 1011.1 |
| 20260505031529 | 44 | 0 | 2.0 | 7.0 | 0.00 | 0.19 | 0.19 | 75 | 1011.0 |
| 20260505030028 | 44 | 44 | 3.0 | 8.0 | 0.00 | 0.19 | 0.19 | 74 | 1010.9 |
| 20260505024527 | 45 | 26 | 2.0 | 4.0 | 0.00 | 0.19 | 0.19 | 71 | 1010.8 |
| 20260505023031 | 47 | 299 | 1.0 | 2.0 | 0.00 | 0.19 | 0.19 | 70 | 1010.7 |
| 20260505021526 | 48 | 0 | 0.0 | 5.0 | 0.00 | 0.19 | 0.19 | 68 | 1010.6 |
| 20260505020028 | 48 | 245 | 2.0 | 5.0 | 0.00 | 0.19 | 0.19 | 66 | 1010.4 |
| 20260505014541 | 49 | 254 | 3.0 | 6.0 | 0.00 | 0.19 | 0.19 | 65 | 1010.2 |
| 20260505013029 | 50 | 0 | 0.0 | 3.0 | 0.00 | 0.19 | 0.19 | 63 | 1010.1 |
| 20260505011528 | 51 | 301 | 2.0 | 3.0 | 0.00 | 0.19 | 0.19 | 62 | 1010.0 |
| 20260505010028 | 51 | 347 | 0.0 | 2.0 | 0.00 | 0.19 | 0.19 | 60 | 1010.0 |
| 20260505004533 | 51 | 0 | 0.0 | 3.0 | 0.00 | 0.19 | 0.19 | 59 | 1010.0 |
| 20260505003028 | 51 | 63 | 0.0 | 9.0 | 0.00 | 0.19 | 0.19 | 58 | 1010.3 |
| 20260505001528 | 51 | 116 | 7.0 | 13.0 | 0.01 | 0.19 | 0.19 | 60 | 1010.2 |
| 20260505000029 | 50 | 101 | 5.0 | 15.0 | 0.03 | 0.19 | 0.19 | 62 | 1010.8 |
| 20260504234528 | 49 | 20 | 7.0 | 18.0 | 0.08 | 0.19 | 0.19 | 63 | 1011.3 |
| 20260504233028 | 49 | 22 | 12.0 | 22.0 | 0.18 | 0.19 | 0.19 | 65 | 1011.4 |
| 20260504231530 | 48 | 5 | 15.0 | 23.0 | 0.18 | 0.18 | 0.18 | 67 | 1011.0 |
| 20260504230029 | 48 | 5 | 15.0 | 24.0 | 0.16 | 0.16 | 0.16 | 68 | 1010.7 |
| 20260504224529 | 52 | 350 | 9.0 | 20.0 | 0.10 | 0.10 | 0.10 | 61 | 1010.8 |
| 20260504223028 | 57 | 11 | 7.0 | 17.0 | 0.01 | 0.01 | 0.01 | 52 | 1010.6 |
| 20260504221530 | 59 | 351 | 6.0 | 13.0 | 0.00 | 0.00 | 0.00 | 40 | 1010.2 |
| 20260504220030 | 61 | 315 | 9.0 | 16.0 | 0.00 | 0.00 | 0.00 | 38 | 1010.0 |
| 20260504214530 | 62 | 246 | 6.0 | 16.0 | 0.00 | 0.00 | 0.00 | 39 | 1009.7 |
| 20260504213028 | 62 | 229 | 4.0 | 12.0 | 0.00 | 0.00 | 0.00 | 37 | 1009.5 |
| 20260504211528 | 63 | 259 | 4.0 | 14.0 | 0.00 | 0.00 | 0.00 | 36 | 1009.7 |
| 20260504210026 | 64 | 221 | 5.0 | 13.0 | 0.00 | 0.00 | 0.00 | 30 | 1009.9 |
| 20260504204529 | 65 | 182 | 5.0 | 12.0 | 0.00 | 0.00 | 0.00 | 33 | 1010.0 |
| 20260504203032 | 65 | 179 | 6.0 | 17.0 | 0.00 | 0.00 | 0.00 | 35 | 1010.2 |
| 20260504201528 | 65 | 153 | 8.0 | 17.0 | 0.00 | 0.00 | 0.00 | 37 | 1010.6 |
| 20260504200038 | 64 | 238 | 7.0 | 21.0 | 0.00 | 0.00 | 0.00 | 35 | 1010.7 |
| 20260504194528 | 65 | 235 | 7.0 | 15.0 | 0.00 | 0.00 | 0.00 | 33 | 1010.4 |
| 20260504193028 | 65 | 119 | 7.0 | 12.0 | 0.00 | 0.00 | 0.00 | 32 | 1010.9 |
| 20260504191546 | 64 | 0 | 3.0 | 10.0 | 0.00 | 0.00 | 0.00 | 32 | 1011.1 |
| 20260504190027 | 62 | 225 | 3.0 | 8.0 | 0.00 | 0.00 | 0.00 | 34 | 1011.4 |
| 20260504184612 | 62 | 238 | 1.0 | 12.0 | 0.00 | 0.00 | 0.00 | 35 | 1011.8 |
| 20260504184527 | 62 | 238 | 1.0 | 12.0 | 0.00 | 0.00 | 0.00 | 35 | 1011.8 |
| 20260504183039 | 64 | 5 | 8.0 | 13.0 | 0.00 | 0.00 | 0.00 | 35 | 1011.9 |
| 20260504181529 | 64 | 257 | 6.0 | 14.0 | 0.00 | 0.00 | 0.00 | 35 | 1012.1 |
| 20260504180030 | 62 | 219 | 8.0 | 16.0 | 0.00 | 0.00 | 0.00 | 40 | 1012.3 |
| 20260504174530 | 61 | 231 | 6.0 | 14.0 | 0.00 | 0.00 | 0.00 | 39 | 1012.4 |
| 20260504173029 | 61 | 226 | 4.0 | 13.0 | 0.00 | 0.00 | 0.00 | 37 | 1012.9 |
| 20260504171528 | 60 | 214 | 3.0 | 7.0 | 0.00 | 0.00 | 0.00 | 37 | 1013.1 |